CW5709 Weather Reports


Display with metric or nautical units.
time (UTC)temp
F
wind
direction
speed
MPH
gust
MPH
rain 1hr
in
rain 24hr
in
rain mn
in
humidity
%
barometer
mb
20260508231508 70 0.0 0.0 0.00 0.00 0.00 43 1021.5
20260508230017 70 0.0 0.0 0.00 0.00 0.00 42 1021.5
20260508224517 71 0.0 0.0 0.00 0.00 0.00 44 1021.5
20260508223023 71 0.0 0.0 0.00 0.00 0.00 44 1021.6
20260508221506 72 0.0 0.0 0.00 0.00 0.00 42 1021.8
20260508220012 72 0.0 0.0 0.00 0.00 0.00 42 1021.9
20260508214517 74 0.0 0.0 0.00 0.00 0.00 40 1022.1
20260508213024 75 0.0 0.0 0.00 0.00 0.00 39 1022.1
20260508211528 74 0.0 0.0 0.00 0.00 0.00 39 1022.2
20260508210009 72 0.0 0.0 0.00 0.00 0.00 40 1022.1
20260508204513 71 0.0 0.0 0.00 0.00 0.00 41 1022.3
20260508203016 71 0.0 0.0 0.00 0.00 0.00 43 1022.4
20260508201527 69 0.0 0.0 0.00 0.00 0.00 43 1022.5
20260508200024 69 0.0 0.0 0.00 0.00 0.00 45 1022.6
20260508194508 67 0.0 0.0 0.00 0.00 0.00 46 1022.6
20260508193014 65 0.0 0.0 0.00 0.00 0.00 49 1022.8
20260508191527 63 0.0 0.0 0.00 0.00 0.00 52 1022.9
20260508190032 62 0.0 0.0 0.00 0.00 0.00 52 1022.9
20260508184529 60 0.0 0.0 0.00 0.00 0.00 54 1022.9
20260508183014 59 0.0 0.0 0.00 0.00 0.00 56 1022.9
20260508181519 58 0.0 0.0 0.00 0.00 0.00 57 1022.9
20260508180022 58 0.0 0.0 0.00 0.00 0.00 59 1022.8
20260508174532 57 0.0 0.0 0.00 0.00 0.00 61 1022.7
20260508173025 56 0.0 0.0 0.00 0.00 0.00 64 1022.7
20260508171524 56 0.0 0.0 0.00 0.00 0.00 64 1022.7
20260508170018 55 0.0 0.0 0.00 0.00 0.00 66 1022.6
20260508164525 54 0.0 0.0 0.00 0.00 0.00 68 1022.5
20260508163023 53 0.0 0.0 0.00 0.00 0.00 70 1022.5
20260508161525 52 0.0 0.0 0.00 0.00 0.00 75 1022.4
20260508160015 52 0.0 0.0 0.00 0.00 0.00 76 1022.2
20260508154504 51 0.0 0.0 0.00 0.00 0.00 77 1021.9
20260508153008 50 0.0 0.0 0.00 0.00 0.00 79 1022.3
20260508151508 50 0.0 0.0 0.00 0.00 0.00 81 1021.9
20260508150027 49 0.0 0.0 0.00 0.00 0.00 82 1022.1
20260508144519 49 0.0 0.0 0.00 0.00 0.00 82 1021.9
20260508143005 49 0.0 0.0 0.00 0.00 0.00 82 1021.9
20260508140011 48 0.0 0.0 0.00 0.00 0.00 81 1021.8
20260508134519 48 0.0 0.0 0.00 0.00 0.00 81 1021.7
20260508133022 47 0.0 0.0 0.00 0.00 0.00 81 1021.6
20260508131510 47 0.0 0.0 0.00 0.00 0.00 81 1021.3
20260508124515 48 0.0 0.0 0.00 0.00 0.00 81 1021.0
20260508123027 48 0.0 0.0 0.00 0.00 0.00 80 1020.7
20260508120012 49 0.0 0.0 0.00 0.00 0.00 79 1020.2
20260508113025 49 0.0 0.0 0.00 0.00 0.00 80 1020.2
20260508111523 49 0.0 0.0 0.00 0.00 0.00 80 1019.9
20260508100026 49 0.0 0.0 0.00 0.00 0.00 80 1019.3
20260508090036 50 0.0 0.0 0.00 0.00 0.00 79 1018.5
20260508084522 50 0.0 0.0 0.00 0.00 0.00 78 1018.6
20260508083025 50 0.0 0.0 0.00 0.00 0.00 78 1018.5
20260508081517 51 0.0 0.0 0.00 0.00 0.00 77 1018.3
20260508080003 51 0.0 0.0 0.00 0.00 0.00 77 1018.2
20260508073004 52 0.0 0.0 0.00 0.00 0.00 76 1018.2
20260508071522 52 0.0 0.0 0.00 0.00 0.00 76 1018.2
20260508070018 53 0.0 0.0 0.00 0.00 0.00 74 1018.2
20260508064503 53 0.0 0.0 0.00 0.00 0.00 74 1018.0
20260508061511 54 0.0 0.0 0.00 0.00 0.00 72 1017.8
20260508053003 56 0.0 0.0 0.00 0.00 0.00 70 1017.8
20260508051504 57 0.0 0.0 0.00 0.00 0.00 68 1017.8
20260508040012 61 0.0 0.0 0.00 0.00 0.00 62 1017.2
20260508034515 62 0.0 0.0 0.00 0.00 0.00 59 1017.2
20260508030007 66 0.0 0.0 0.00 0.00 0.00 56 1016.4
20260508024509 67 0.0 0.0 0.00 0.00 0.00 52 1016.4
20260508023016 68 0.0 0.0 0.00 0.00 0.00 50 1016.4
20260508021529 69 0.0 0.0 0.00 0.00 0.00 49 1016.2
20260508014509 71 0.0 0.0 0.00 0.00 0.00 47 1016.2
20260508011519 72 0.0 0.0 0.00 0.00 0.00 49 1016.6
20260508010025 72 0.0 0.0 0.00 0.00 0.00 49 1016.7
20260508003013 72 0.0 0.0 0.00 0.00 0.00 47 1016.7
20260508000022 72 0.0 0.0 0.00 0.00 0.00 45 1016.9
20260507234523 73 0.0 0.0 0.00 0.00 0.00 45 1016.9
20260507233034 73 0.0 0.0 0.00 0.00 0.00 43 1017.1